OBJECT AC, 62403

Orbit data source: Space-Track

You're viewing an Uncataloged Satellite

Recently launched and/or uncataloged satellites may have evolving metadata. Metadata may include but not limited to: Owner, Maufacturer, Bus, Motor, and Mission.

OBJECT AC, 62403 is a satellite in LEO that was launched on Sat, 21 Dec 2024 UTC via an FALCON 9 launch vehicle from the Air Force Western Test Range (AFWTR). Unknown objects in Earth's orbit typically refer to objects detected orbiting the Earth but have not yet been identified or cataloged. These objects could be anything from previously untracked satellites, spent rocket stages, debris from satellite collisions, or even natural meteoroids temporarily captured by Earth's gravity.

Loading next visibility...
Identifier
62403, 2024-247AC
Orbit
LEO
Country
Flag of TBDTBD
Related business
None
Manufacturer
Unknown
Mission
Operational Commercial Communications
Bus & Motor
Unknown
Mass
Unknown
Launch date (UTC)
2024-12-21 (10 months ago)
Launch vehicle
FALCON 9
Launch site
Air Force Western Test Range (AFWTR)
Object type
Unknown
Shape & HBR
Box, 0.0 m
Radar Cross Section
0.004 m², Small (<0.1 m²)

Expand to show TLE details & history
Last TLE update: 21 hours ago

TLE from 21 hours ago
0 OBJECT AC
1 62403U 24247AC  25297.60106907  .00020838  00000-0  73844-3 0  9998
2 62403  45.0063 134.7949 0004466 218.8887 141.1676 15.28816098 46985
Epoch: 2025-10-24T14:25Z
TLE epoch observation values (Epoch: 2025-10-24T14:25:32.367Z)
Latitude
-0.00001°
Longitude
-114.8336°
Altitude
481.736 km
Speed
7.625 km/s
True Right ascension
08h 59m 10s
True Declination
0° 00' 00"
Sunlit
Object was in daylight at epoch
Visualization orbit readout
Latitude
Unknown
Longitude
Unknown
Altitude
Unknown
Speed
Unknown
Apparent Right ascension
Unknown
Apparent Declination
Unknown
Sunlit
N/A
Visualization observer readout
Local Sidereal Time
06:14:11
Azimuth
Unknown
Elevation
Unknown
Doppler factor
Unknown
Orbital elements
Apogee altitude
484.023 km
Perigee altitude
477.896 km
Semi-major axis
6,859.096 km
Eccentricity
0.00045
Inclination
45.0063°
RAAN
134.7949°
Arg. of periapsis
218.8887°
True anomaly
141.19968°
Mean anomaly
141.1676°
Eccentric anomaly
141.18364°
Mean motion
3.8207 °/min
Orbital period
94.22 mins
BSTAR
0.00073844
Loading maneuver chart data...
Computing Atmospheric mass density...
Loading historical data...
Loading historical data...
Loading historical data...
Loading historical data...
Loading historical data...
Loading historical data...
Loading historical data...

Documentation

Showing up to 5 results
|